User: anonymous   Login
Location: Unspecified
(0.0000°N, 0.0000°E)
Time: 03:54:24
(UTC+01:00)
Language:

ARIANE 5 R/B - Orbit

View from above orbital plane
View from above orbital plane
View from above satellite
View from above satellite

Ground track
Ground track

The orbit data is extracted from the following two-line orbital elements,

1 28787U 05028B   17049.74492729 -.00000117  00000-0  65829-4 0  9996
2 28787   6.9698  81.8337 7161569 111.3740 306.2440  2.26564773 95436
Epoch (UTC): 18 February 2017 17:52:41
Eccentricity: 0.7161569
inclination: 6.9698°
perigee height: 572 km
apogee height: 35645 km
right ascension of ascending node: 81.8337°
argument of perigee: 111.3740°
revolutions per day: 2.26564773
mean anomaly at epoch: 306.2440°
orbit number at epoch: 9543

The dashed part of the orbit path shows where the satellite is in the earth's shadow,  

DLR